Weather History for Port Huron, MI

Change the Weather History Date:

Thursday, October 10, 2013

  Actual Average (KMTC) Record (KMTC)
Temperature  
Mean Temperature 52 °F -  
Max Temperature 69 °F 60 °F 81 °F (1949)
Min Temperature 35 °F 44 °F 26 °F (1964)
Degree Days  
Heating Degree Days 13    
Growing Degree Days 2 (Base 50)    
Moisture  
Dew Point 45 °F    
Average Humidity 83    
Maximum Humidity 100    
Minimum Humidity 38    
Precipitation  
Precipitation 0.00 in - - ()
Sea Level Pressure  
Sea Level Pressure 30.21 in    
Wind  
Wind Speed 1 mph (ESE)    
Max Wind Speed 7 mph    
Max Gust Speed -    
Visibility 7 miles    
Events Fog    
Averages and records for this station are not official NWS values.
T = Trace of Precipitation, MM = Missing Value Source: NWS Daily Summary

Daily Weather History Graph

Daily Weather History Graph

Search for Another Location

Airport:

Trip Planner

Search our weather history database for the weather conditions in past years. The results will help you decide how hot, cold, wet, or windy it might be!

Date:

Astronomy

Oct. 10, 2013 Rise Set
Actual Time 7:37 AM EDT 6:55 PM EDT
Civil Twilight 7:09 AM EDT 7:23 PM EDT
Nautical Twilight 6:36 AM EDT 7:56 PM EDT
Astronomical Twilight 6:03 AM EDT 8:29 PM EDT
Moon 1:34 PM EDT (10/10) 11:26 PM EDT (10/10)
Length of Visible Light 12h 14m
Length of Day
11h 17m
Waxing Crescent, 35% of the Moon is Illuminated
Oct 10
Waxing Crescent
Oct 11
First Quarter
Oct 18
Full
Oct 26
Last Quarter
Nov 3
New

Hourly Weather History & Observations

Time (EDT) Temp. Dew Point Humidity Pressure Visibility Wind Dir Wind Speed Gust Speed Precip Events Conditions
12:16 AM 41.0 °F 41.0 °F 100% 30.25 in 0.5 mi Calm Calm - N/A Fog Fog
12:36 AM 39.2 °F 39.2 °F 100% 30.24 in 0.5 mi Calm Calm - N/A Fog Fog
12:56 AM 39.2 °F 39.2 °F 100% 30.24 in 0.8 mi Calm Calm - N/A   Mostly Cloudy
1:16 AM 39.2 °F 39.2 °F 100% 30.24 in 0.8 mi Calm Calm - N/A   Mist
1:36 AM 41.0 °F 41.0 °F 100% 30.24 in 7.0 mi Calm Calm - N/A   Clear
1:56 AM 39.2 °F 39.2 °F 100% 30.23 in 1.5 mi Calm Calm - N/A   Mist
2:16 AM 39.2 °F 39.2 °F 100% 30.24 in 1.5 mi Calm Calm - N/A   Mist
2:36 AM 39.2 °F 39.2 °F 100% 30.24 in 3.0 mi Calm Calm - N/A   Clear
2:56 AM 39.2 °F 39.2 °F 100% 30.24 in 1.0 mi Calm Calm - N/A   Mist
3:16 AM 41.0 °F 41.0 °F 100% 30.23 in 1.2 mi Calm Calm - N/A   Mist
3:36 AM 41.0 °F 41.0 °F 100% 30.23 in 10.0 mi Calm Calm - N/A   Clear
3:56 AM 41.0 °F 41.0 °F 100% 30.22 in 7.0 mi Calm Calm - N/A   Clear
4:16 AM 41.0 °F 41.0 °F 100% 30.23 in 10.0 mi Calm Calm - N/A   Clear
4:36 AM 39.2 °F 39.2 °F 100% 30.23 in 0.5 mi Calm Calm - N/A Fog Fog
4:56 AM 39.2 °F 39.2 °F 100% 30.23 in 10.0 mi Calm Calm - N/A   Scattered Clouds
5:16 AM 39.2 °F 39.2 °F 100% 30.23 in 7.0 mi Calm Calm - N/A   Clear
5:36 AM 37.4 °F 37.4 °F 100% 30.24 in 1.2 mi Calm Calm - N/A   Mist
5:56 AM 37.4 °F 37.4 °F 100% 30.24 in 0.5 mi Calm Calm - N/A Fog Fog
6:16 AM 37.4 °F 37.4 °F 100% 30.24 in 0.5 mi Calm Calm - N/A Fog Fog
6:36 AM 37.4 °F 37.4 °F 100% 30.24 in 1.0 mi Calm Calm - N/A   Mist
6:56 AM 35.6 °F 35.6 °F 100% 30.24 in 0.5 mi Calm Calm - N/A Fog Fog
7:16 AM 35.6 °F 35.6 °F 100% 30.24 in 0.8 mi Calm Calm - N/A   Mist
7:28 AM 35.6 °F 35.6 °F 100% 30.24 in 3.0 mi Calm Calm - N/A   Clear
7:56 AM 35.6 °F 35.6 °F 100% 30.24 in 4.0 mi Calm Calm - N/A   Clear
8:16 AM 37.4 °F 37.4 °F 100% 30.25 in 5.0 mi Calm Calm - N/A   Clear
8:36 AM 39.2 °F 39.2 °F 100% 30.25 in 10.0 mi Calm Calm - N/A   Clear
8:56 AM 42.8 °F 42.8 °F 100% 30.25 in 10.0 mi Calm Calm - N/A   Clear
9:16 AM 46.4 °F 46.4 °F 100% 30.25 in 10.0 mi Calm Calm - N/A   Clear
9:36 AM 50.0 °F 50.0 °F 100% 30.25 in 10.0 mi Calm Calm - N/A   Clear
9:56 AM 53.6 °F 53.6 °F 100% 30.25 in 10.0 mi Calm Calm - N/A   Clear
10:16 AM 57.2 °F 53.6 °F 88% 30.25 in 10.0 mi ESE 3.5 mph - N/A   Clear
10:36 AM 59.0 °F 53.6 °F 82% 30.25 in 10.0 mi SE 3.5 mph - N/A   Clear
10:56 AM 62.6 °F 53.6 °F 72% 30.24 in 10.0 mi South 3.5 mph - N/A   Clear
11:16 AM 62.6 °F 53.6 °F 72% 30.24 in 10.0 mi SE 5.8 mph - N/A   Clear
11:36 AM 64.4 °F 53.6 °F 68% 30.24 in 10.0 mi SE 4.6 mph - N/A   Clear
11:56 AM 64.4 °F 51.8 °F 64% 30.24 in 10.0 mi ESE 5.8 mph - N/A   Clear
12:16 PM 66.2 °F 51.8 °F 60% 30.24 in 10.0 mi SE 4.6 mph - N/A   Clear
12:36 PM 66.2 °F 51.8 °F 60% 30.23 in 10.0 mi East 3.5 mph - N/A   Clear
12:56 PM 66.2 °F 48.2 °F 52% 30.22 in 10.0 mi SE 5.8 mph - N/A   Clear
1:16 PM 68.0 °F 48.2 °F 49% 30.22 in 10.0 mi Calm Calm - N/A   Clear
1:36 PM 68.0 °F 48.2 °F 49% 30.22 in 10.0 mi SE 6.9 mph - N/A   Clear
1:56 PM 68.0 °F 46.4 °F 46% 30.21 in 10.0 mi South 4.6 mph - N/A   Clear
2:16 PM 68.0 °F 46.4 °F 46% 30.20 in 10.0 mi SE 6.9 mph - N/A   Clear
2:36 PM 69.8 °F 44.6 °F 40% 30.19 in 10.0 mi Calm Calm - N/A   Clear
2:56 PM 69.8 °F 46.4 °F 43% 30.19 in 10.0 mi ESE 6.9 mph - N/A   Clear
3:16 PM 69.8 °F 46.4 °F 43% 30.18 in 10.0 mi South 3.5 mph - N/A   Clear
3:36 PM 69.8 °F 44.6 °F 40% 30.18 in 10.0 mi Calm Calm - N/A   Clear
3:56 PM 69.8 °F 44.6 °F 40% 30.18 in 10.0 mi South 3.5 mph - N/A   Clear
4:16 PM 69.8 °F 44.6 °F 40% 30.17 in 10.0 mi South 3.5 mph - N/A   Clear
4:36 PM 69.8 °F 44.6 °F 40% 30.17 in 10.0 mi SE 3.5 mph - N/A   Clear
4:56 PM 69.8 °F 44.6 °F 40% 30.17 in 10.0 mi ESE 6.9 mph - N/A   Clear
5:16 PM 69.8 °F 42.8 °F 38% 30.16 in 10.0 mi ENE 4.6 mph - N/A   Clear
5:36 PM 66.2 °F 51.8 °F 60% 30.16 in 10.0 mi NE 6.9 mph - N/A   Clear
5:56 PM 64.4 °F 51.8 °F 64% 30.16 in 10.0 mi NE 6.9 mph - N/A   Clear
6:16 PM 62.6 °F 51.8 °F 68% 30.16 in 10.0 mi NNE 3.5 mph - N/A   Clear
6:36 PM 60.8 °F 51.8 °F 72% 30.16 in 10.0 mi NE 4.6 mph - N/A   Clear
6:56 PM 55.4 °F 50.0 °F 82% 30.16 in 10.0 mi Calm Calm - N/A   Clear
7:16 PM 53.6 °F 48.2 °F 82% 30.16 in 10.0 mi Calm Calm - N/A   Clear
7:36 PM 51.8 °F 50.0 °F 94% 30.16 in 10.0 mi Calm Calm - N/A   Clear
7:56 PM 50.0 °F 48.2 °F 94% 30.16 in 10.0 mi Calm Calm - N/A   Clear
8:16 PM 48.2 °F 48.2 °F 100% 30.16 in 10.0 mi Calm Calm - N/A   Clear
8:36 PM 46.4 °F 46.4 °F 100% 30.16 in 10.0 mi Calm Calm - N/A   Clear
8:56 PM 46.4 °F 46.4 °F 100% 30.16 in 10.0 mi Calm Calm - N/A   Clear
9:16 PM 46.4 °F 46.4 °F 100% 30.16 in 10.0 mi Calm Calm - N/A   Clear
9:36 PM 44.6 °F 44.6 °F 100% 30.16 in 0.8 mi Calm Calm - N/A   Mist
9:56 PM 46.4 °F 46.4 °F 100% 30.17 in 10.0 mi Calm Calm - N/A   Clear
10:16 PM 44.6 °F 44.6 °F 100% 30.16 in 10.0 mi Calm Calm - N/A   Clear
10:36 PM 46.4 °F 46.4 °F 100% 30.16 in 7.0 mi Calm Calm - N/A   Clear
10:56 PM 42.8 °F 42.8 °F 100% 30.15 in 0.2 mi Calm Calm - N/A Fog Fog
11:16 PM 44.6 °F 44.6 °F 100% 30.15 in 7.0 mi Calm Calm - N/A   Scattered Clouds
11:36 PM 42.8 °F 42.8 °F 100% 30.14 in 2.5 mi Calm Calm - N/A   Clear
11:56 PM 42.8 °F 42.8 °F 100% 30.14 in 0.2 mi Calm Calm - N/A Fog Fog